一网星座-0161星 (ONEWEB-0161 )

导读 | 豆包AI

ONEWEB-0161是英国OneWeb公司低轨卫星星座的成员,由英国发射,于2021年3月25日08:00成功进入预定轨道。它属于OneWeb一期星座,单星重约147.5公斤,配备Ku/Ka波段天线,采用霍尔效应推进器,设计寿命5年,具备提供宽带互联网服务的能力,单星通信容量约7.5Gbps,是OneWeb构建全球覆盖低轨卫星互联网的重要组成部分,可为全球偏远地区提供高速网络接入。

Basic Information
目录编号:
48053
目录名称:
ONEWEB-0161
国际标识:
2021-025M
轨道中心:
EARTH
卫星名称:
一网星座-0161星
卫星全名:
一网星座-0161星 (ONEWEB-0161 )
卫星状态:
在轨 (已飞行1861 天)
发射日期:
2021-03-25 UTC
国别 :
英国 (GB)
星等 :
--
Orbit Information
数据来源 国际轨道数据 AOE轨道数据
星历时间 2026-04-29T05:10:09+0800
3小时前
查看轨道信息
2026-04-24T09:00:00+0800
4天前
查看轨道信息
半长轴 7587.902km 7587.898km
偏心率 0.0001543 0.0002275
轨道倾角 87.896° 87.895°
近地点辐角 85.748° 43.423°
升交点赤经 330.043° 331.010°
平近点角 274.383° 122.082°
近地点 1208.594km 1208.034km
远地点 1210.936km 1211.488km
周期 109.633分钟 109.633分钟
每日圈数 13.134703 13.134714
Detailed Information
平衡模式:
三轴稳定
覆盖范围:
全球
运营商:
一网卫星公司
运营商所在国:
英国
制造商(研发单位):
一网卫星公司
制造商所在国:
英国
使用方式:
暂无
Satellite Introduction
OneWeb卫星网络由648颗重约125公斤的微型卫星组成,运行在1200公里的轨道上。 每颗卫星都能够提供至少每秒8千兆位的吞吐量,以使用其高吞吐量的Ku频段有效载荷为家庭和移动平台提供互联网接入。该卫星仍在工作。
2D Orbit Map
3D Orbit Map
Orbit Altitude Analysis Chart
Orbit Inclination Analysis Chart
Orbit Comprehensive Analysis Chart
View Comprehensive Chart